Date,TemperatureHighF,TemperatureAvgF,TemperatureLowF,DewpointHighF,DewpointAvgF,DewpointLowF,HumidityHigh,HumidityAvg,HumidityLow,PressureMaxIn,PressureMinIn,WindSpeedMaxMPH,WindSpeedAvgMPH,GustSpeedMaxMPH,PrecipitationSumIn
2013-2-1,29.0,21.6,14.3,22.8,9.9,1.6,92,61,45,30.44,29.85,14,6,28,0.00
2013-2-2,26.3,19.0,12.3,22.1,9.7,1.1,87,67,55,30.44,30.05,8,1,19,0.00
2013-2-3,30.1,26.8,23.5,26.8,22.0,14.2,94,82,63,30.06,29.86,14,3,27,0.01
2013-2-4,35.3,27.5,20.6,17.8,13.6,9.2,65,56,45,30.14,29.92,11,3,26,0.00
2013-2-5,36.5,32.7,29.5,29.4,24.3,17.0,81,71,57,29.97,29.88,3,0,6,0.00
2013-2-6,42.2,34.9,27.5,28.1,24.3,18.6,77,65,52,30.39,30.11,7,3,21,0.00
2013-2-7,37.6,31.7,26.9,26.4,21.2,17.7,77,65,52,30.47,30.23,3,0,9,0.00
2013-2-8,37.8,33.1,29.5,35.5,28.9,20.7,96,85,66,30.23,29.81,17,4,38,0.14
2013-2-9,41.3,31.1,25.4,21.8,16.8,12.1,70,56,33,30.44,29.96,16,6,36,0.00
2013-2-10,43.2,33.2,24.8,22.0,15.3,10.8,62,49,28,30.51,30.24,7,2,20,0.00
2013-2-11,56.9,42.6,32.5,48.7,35.6,21.4,98,81,27,30.25,29.72,16,5,28,0.07
2013-2-12,55.4,45.7,39.1,30.5,25.1,18.6,58,45,28,30.01,29.85,14,6,25,0.00
2013-2-13,40.3,34.7,30.9,31.1,27.1,23.4,97,75,57,29.97,29.70,4,0,9,0.02
2013-2-14,47.0,38.6,29.5,32.7,27.4,24.1,97,66,44,30.05,29.81,5,2,13,0.16
2013-2-15,55.9,41.3,32.9,37.1,29.9,24.1,96,67,40,30.06,29.94,7,2,16,0.11
2013-2-16,35.6,31.5,25.1,33.3,24.8,14.4,96,77,54,30.03,29.89,6,2,11,0.00
2013-2-17,29.1,23.2,19.5,16.2,10.3,3.8,74,58,41,30.25,29.88,14,8,25,0.00
2013-2-18,41.5,28.7,16.5,17.0,7.8,3.9,60,43,26,30.42,30.16,11,4,17,0.00
2013-2-19,45.5,37.3,33.1,37.8,26.2,17.0,88,65,46,30.16,29.72,12,6,21,0.02
2013-2-20,36.5,27.9,20.5,19.6,12.3,5.2,61,52,39,30.21,29.87,15,8,28,0.00
2013-2-21,37.0,26.6,20.2,15.6,12.1,6.9,64,54,39,30.37,30.17,8,4,18,0.00
2013-2-22,29.0,27.4,24.8,27.2,20.7,14.3,93,76,61,30.42,30.23,2,0,8,0.02
2013-2-23,46.0,35.8,29.0,42.2,34.2,27.2,98,94,81,30.24,29.85,2,0,6,0.01
2013-2-24,49.4,37.7,27.8,36.9,27.9,15.2,97,71,38,30.16,29.83,11,4,26,0.00
2013-2-25,46.1,34.6,25.4,22.1,19.8,17.1,74,56,36,30.26,30.14,6,2,14,0.00
2013-2-26,38.6,34.4,29.4,38.1,29.1,19.7,98,82,55,30.24,29.65,5,1,14,1.01
2013-2-27,53.9,42.3,34.9,42.3,35.0,29.4,99,78,50,29.73,29.58,10,3,19,0.07
2013-2-28,42.2,38.1,33.5,33.8,28.0,24.0,80,67,53,29.76,29.66,10,5,21,0.01